Regional Weather Roundup
Issued by NWS Kansas City/Pleasant Hill, MO

Home | Current Version | Previous Version | Graphics & Text | Print | Product List | Glossary Off
Versions: 1 2 3 4 5 6 7 8 9 10 11 12 13 14 15 16 17 18 19 20 21 22 23 24 25 26 27

000
ASUS43 KEAX 161510
RWREAX

WEATHER ROUNDUP FOR EASTERN KANSAS AND NORTHWEST MISSOURI
NATIONAL WEATHER SERVICE KANSAS CITY/PLEASANT HILL MO
900 AM CST SAT DEC 16 2017

KSZ040-057-103>105-MOZ028-029-037-043-161600-
...KANSAS CITY METROPOLITAN AREA...

CITY           SKY/WX    TMP DP  RH WIND       PRES   REMARKS
K.C. INTL      MOSUNNY   40  25  55 SW13      29.88R WCI  32
K.C. DOWNTOWN  SUNNY     42  25  50 SW12      29.90R
LEES SUMMIT    SUNNY     39  26  59 S12       29.90R WCI  32
OLATHE - IXD   SUNNY     40  26  57 S13       29.91R WCI  32
OLATHE - OJC   SUNNY     37  25  61 S13       29.90R WCI  29
LAWRENCE       SUNNY     39  26  59 S8        29.89R WCI  33

$$

MOZ001>008-011>017-020>025-030>033-038>040-044>046-053-054-161600-
...NORTHERN AND CENTRAL MISSOURI...

CITY           SKY/WX    TMP DP  RH WIND       PRES   REMARKS
ST. JOSEPH     SUNNY     39  28  64 SW9       29.86R WCI  33
MOSBY          SUNNY     41  27  56 SW10      29.90R WCI  35
WARRENSBURG    SUNNY     39  27  60 S15G22    29.94R WCI  31
WHITEMAN AFB   SUNNY     41  24  51 SW18      29.89R WCI  32
CLINTON        SUNNY     41  27  56 SW13      29.97R WCI  34
SEDALIA        SUNNY     44  26  49 SW21G30   29.95R
WARSAW         NOT AVBL
CHILLICOTHE      N/A     38  25  59 S9        29.89R WCI  31
KIRKSVILLE     SUNNY     39  28  64 SW15      29.87R WCI  31

$$

MOZ041-047>049-056>058-063>065-088>090-097-161600-
...EASTERN AND SOUTHERN MISSOURI...

CITY           SKY/WX    TMP DP  RH WIND       PRES   REMARKS
ST. LOUIS INTL MOSUNNY   42  26  53 SW16      30.00R WCI  34
SPIRIT OF STL  SUNNY     44  26  49 SW16G23   30.00R
COLUMBIA       SUNNY     42  26  53 SW15      29.96R WCI  34
JEFFERSON CITY SUNNY     41  25  53 S3        29.99R
ROLLA          SUNNY     39  26  59 S18       30.00R WCI  30
OSAGE BEACH    SUNNY     45  25  45 SW10      30.00S
SPRINGFIELD    SUNNY     40  26  57 S10       30.02S WCI  33
BRANSON        MOSUNNY   45  23  42 SW7G17    30.08R
JOPLIN         SUNNY     45  26  47 S18G29    30.02R
WEST PLAINS    CLOUDY    40  27  59 SW7       30.09S

$$

IAZ060-094-KSZ022-034>040-054-083-096-NEZ052-066-093-161600-
...KANSAS...SOUTHEAST NEBRASKA AND IOWA...

CITY           SKY/WX    TMP DP  RH WIND       PRES   REMARKS
TOPEKA         SUNNY    N/A N/A N/A S10       29.87R
MANHATTAN      SUNNY     38  25  59 SW14      29.85R WCI  30
EMPORIA        CLOUDY    35  25  66 S9        29.88S WCI  28
CHANUTE        SUNNY     40  25  55 S16       29.96S WCI  31
WICHITA        CLOUDY    38  27  64 S15       29.89S WCI  29
OMAHA          CLOUDY    33  23  66 SE3       29.80R
LINCOLN        CLOUDY    31  23  72 S5        29.81R WCI  26
FALLS CITY     CLOUDY    36  25  64 S3        29.83R
LAMONI         CLOUDY    35  25  66 S9        29.82R WCI  28
DES MOINES     MOSUNNY   37  26  64 SW9       29.79R WCI  30

$$





USA.gov is the U.S. government's official web portal to all federal, state and local government web resources and services.